When you browse on this site, cookies collect data to enhance your experience and personalize the content and advertising you see.
Visit our Privacy Policy to learn more. By continuing to use the site, you agree to this use of cookies and data.
  • En España
  • Lista de países
  • Para 7 días
  • Temperatura del agua
  • Mapa Satelital
  • El tiempo en el mapa
  • Informadores
  • user-avatar
    Iniciar sesión

    Tiempo cada hora Almaty

    Hoy, 17 Junio, Lunes

    Tiempo Temperatura Precipitaciones Viento Presión Humedad
    00:00 +17°C° 0 mm 2 mps 686 mmHg 63%
    01:00 +17°C° 0 mm 2 mps 686 mmHg 62%
    02:00 +17°C° 0 mm 2 mps 686 mmHg 61%
    03:00 +17°C° 0 mm 2 mps 686 mmHg 61%
    04:00 +17°C° 0 mm 2 mps 685 mmHg 61%
    05:00 +18°C° 0 mm 1 mps 685 mmHg 61%
    06:00 +20°C° 0 mm 1 mps 686 mmHg 57%
    07:00 +22°C° 0 mm 1 mps 686 mmHg 54%
    08:00 +23°C° 0 mm 1 mps 687 mmHg 50%
    09:00 +24°C° 0.1 mm 1 mps 687 mmHg 49%
    10:00 +25°C° 0.1 mm 2 mps 686 mmHg 47%
    11:00 +26°C° 0.1 mm 2 mps 686 mmHg 46%
    12:00 +27°C° 0.2 mm 2 mps 686 mmHg 46%
    13:00 +27°C° 0.2 mm 2 mps 686 mmHg 46%
    14:00 +27°C° 0.2 mm 2 mps 685 mmHg 45%
    15:00 +27°C° 0.2 mm 2 mps 685 mmHg 47%
    16:00 +27°C° 0.2 mm 2 mps 685 mmHg 49%
    17:00 +27°C° 0.2 mm 2 mps 686 mmHg 51%
    18:00 +25°C° 0.1 mm 2 mps 685 mmHg 55%
    19:00 +23°C° 0.1 mm 2 mps 685 mmHg 58%
    20:00 +20°C° 0.1 mm 2 mps 685 mmHg 62%
    21:00 +20°C° 0 mm 2 mps 685 mmHg 61%
    22:00 +19°C° 0 mm 2 mps 685 mmHg 59%
    23:00 +19°C° 0 mm 2 mps 685 mmHg 58%

    Mañana, 18 Junio, Martes

    Tiempo Temperatura Precipitaciones Viento Presión Humedad
    00:00 +18°C° 0 mm 2 mps 685 mmHg 57%
    01:00 +18°C° 0 mm 2 mps 685 mmHg 55%
    02:00 +18°C° 0 mm 2 mps 684 mmHg 54%
    03:00 +18°C° 0 mm 2 mps 684 mmHg 55%
    04:00 +18°C° 0 mm 2 mps 684 mmHg 55%
    05:00 +18°C° 0 mm 2 mps 684 mmHg 56%
    06:00 +20°C° 0 mm 2 mps 684 mmHg 52%
    07:00 +23°C° 0 mm 2 mps 685 mmHg 49%
    08:00 +25°C° 0 mm 2 mps 685 mmHg 45%
    09:00 +26°C° 0.1 mm 2 mps 685 mmHg 45%
    10:00 +27°C° 0.1 mm 2 mps 685 mmHg 44%
    11:00 +28°C° 0.1 mm 2 mps 684 mmHg 43%
    12:00 +28°C° 0.4 mm 2 mps 684 mmHg 44%
    13:00 +28°C° 0.4 mm 2 mps 684 mmHg 46%
    14:00 +28°C° 0.4 mm 1 mps 684 mmHg 47%
    15:00 +27°C° 0.4 mm 1 mps 684 mmHg 49%
    16:00 +27°C° 0.4 mm 1 mps 684 mmHg 52%
    17:00 +26°C° 0.4 mm 1 mps 684 mmHg 54%
    18:00 +25°C° 0.4 mm 2 mps 685 mmHg 55%
    19:00 +24°C° 0.4 mm 2 mps 685 mmHg 56%
    20:00 +23°C° 0.4 mm 2 mps 686 mmHg 58%
    21:00 +21°C° 0.6 mm 2 mps 686 mmHg 59%
    22:00 +20°C° 0.6 mm 2 mps 686 mmHg 60%
    23:00 +20°C° 0.6 mm 2 mps 686 mmHg 62%

    Pasado mañana, 19 Junio, Miércoles

    Tiempo Temperatura Precipitaciones Viento Presión Humedad
    00:00 +19°C° 0 mm 2 mps 685 mmHg 60%
    01:00 +19°C° 0 mm 2 mps 685 mmHg 59%
    02:00 +18°C° 0 mm 2 mps 684 mmHg 57%
    03:00 +19°C° 0 mm 1 mps 684 mmHg 58%
    04:00 +19°C° 0 mm 1 mps 684 mmHg 59%
    05:00 +19°C° 0 mm 1 mps 684 mmHg 59%
    06:00 +21°C° 0.1 mm 1 mps 685 mmHg 58%
    07:00 +22°C° 0.1 mm 1 mps 685 mmHg 57%
    08:00 +23°C° 0.1 mm 1 mps 685 mmHg 56%
    09:00 +24°C° 0.2 mm 1 mps 685 mmHg 54%
    10:00 +25°C° 0.2 mm 2 mps 685 mmHg 52%
    11:00 +26°C° 0.2 mm 2 mps 685 mmHg 51%
    12:00 +26°C° 0.3 mm 2 mps 685 mmHg 50%
    13:00 +27°C° 0.3 mm 2 mps 684 mmHg 49%
    14:00 +27°C° 0.3 mm 2 mps 684 mmHg 48%
    15:00 +27°C° 0.2 mm 2 mps 684 mmHg 49%
    16:00 +26°C° 0.2 mm 2 mps 685 mmHg 50%
    17:00 +26°C° 0.2 mm 2 mps 685 mmHg 52%
    18:00 +23°C° 0.2 mm 2 mps 685 mmHg 63%
    19:00 +20°C° 0.2 mm 3 mps 685 mmHg 73%
    20:00 +17°C° 0.2 mm 4 mps 686 mmHg 84%
    21:00 +17°C° 0.1 mm 3 mps 686 mmHg 82%
    22:00 +17°C° 0.1 mm 2 mps 686 mmHg 80%
    23:00 +18°C° 0.1 mm 1 mps 687 mmHg 79%

    20 Junio, Jueves

    Tiempo Temperatura Precipitaciones Viento Presión Humedad
    00:00 +18°C° 0 mm 1 mps 686 mmHg 75%
    01:00 +18°C° 0 mm 1 mps 686 mmHg 72%
    02:00 +16°C° 0 mm 1 mps 686 mmHg 69%
    03:00 +16°C° 0 mm 1 mps 686 mmHg 68%
    04:00 +16°C° 0 mm 1 mps 686 mmHg 67%
    05:00 +16°C° 0 mm 1 mps 686 mmHg 66%
    06:00 +19°C° 0 mm 1 mps 686 mmHg 62%
    07:00 +21°C° 0 mm 1 mps 686 mmHg 58%
    08:00 +23°C° 0 mm 1 mps 687 mmHg 54%
    09:00 +24°C° 0 mm 2 mps 687 mmHg 51%
    10:00 +25°C° 0 mm 2 mps 686 mmHg 49%
    11:00 +26°C° 0 mm 2 mps 686 mmHg 47%
    12:00 +27°C° 0.2 mm 2 mps 686 mmHg 47%
    13:00 +27°C° 0.2 mm 2 mps 686 mmHg 47%
    14:00 +28°C° 0.2 mm 2 mps 686 mmHg 47%
    15:00 +28°C° 0.2 mm 2 mps 686 mmHg 48%
    16:00 +27°C° 0.2 mm 2 mps 686 mmHg 49%
    17:00 +27°C° 0.2 mm 3 mps 686 mmHg 50%
    18:00 +25°C° 0.1 mm 2 mps 686 mmHg 52%
    19:00 +24°C° 0.1 mm 2 mps 686 mmHg 55%
    20:00 +21°C° 0.1 mm 2 mps 686 mmHg 58%
    21:00 +21°C° 0 mm 2 mps 686 mmHg 57%
    22:00 +20°C° 0 mm 2 mps 686 mmHg 56%
    23:00 +21°C° 0 mm 1 mps 686 mmHg 55%

    21 Junio, Viernes

    Tiempo Temperatura Precipitaciones Viento Presión Humedad
    00:00 +20°C° 0 mm 2 mps 686 mmHg 54%
    01:00 +19°C° 0 mm 2 mps 685 mmHg 54%
    02:00 +19°C° 0 mm 2 mps 685 mmHg 54%
    03:00 +19°C° 0 mm 2 mps 685 mmHg 55%
    04:00 +19°C° 0 mm 2 mps 685 mmHg 56%
    05:00 +19°C° 0 mm 1 mps 685 mmHg 57%
    06:00 +21°C° 0 mm 1 mps 686 mmHg 54%
    07:00 +23°C° 0 mm 1 mps 686 mmHg 51%
    08:00 +25°C° 0 mm 1 mps 686 mmHg 48%
    09:00 +26°C° 0.2 mm 2 mps 686 mmHg 47%
    10:00 +27°C° 0.2 mm 2 mps 686 mmHg 45%
    11:00 +29°C° 0.2 mm 3 mps 686 mmHg 44%
    12:00 +29°C° 0.3 mm 3 mps 686 mmHg 43%
    13:00 +29°C° 0.3 mm 3 mps 685 mmHg 42%
    14:00 +30°C° 0.3 mm 3 mps 685 mmHg 42%
    15:00 +30°C° 0.2 mm 3 mps 685 mmHg 43%
    16:00 +29°C° 0.2 mm 2 mps 685 mmHg 44%
    17:00 +29°C° 0.2 mm 2 mps 685 mmHg 44%
    18:00 +27°C° 0.1 mm 2 mps 685 mmHg 46%
    19:00 +26°C° 0.1 mm 2 mps 685 mmHg 48%
    20:00 +24°C° 0.1 mm 2 mps 685 mmHg 49%
    21:00 +23°C° 0 mm 2 mps 685 mmHg 48%
    22:00 +23°C° 0 mm 2 mps 685 mmHg 47%
    23:00 +23°C° 0 mm 2 mps 685 mmHg 46%

    22 Junio, Sábado

    Tiempo Temperatura Precipitaciones Viento Presión Humedad
    00:00 +21°C° 0.1 mm 2 mps 685 mmHg 46%
    01:00 +21°C° 0.1 mm 2 mps 685 mmHg 46%
    02:00 +21°C° 0.1 mm 2 mps 684 mmHg 46%
    03:00 +21°C° 0 mm 2 mps 684 mmHg 47%
    04:00 +21°C° 0 mm 2 mps 684 mmHg 49%
    05:00 +21°C° 0 mm 2 mps 684 mmHg 50%
    06:00 +23°C° 0 mm 2 mps 685 mmHg 47%
    07:00 +25°C° 0 mm 2 mps 685 mmHg 44%
    08:00 +27°C° 0 mm 1 mps 685 mmHg 41%
    09:00 +28°C° 0.1 mm 1 mps 685 mmHg 40%
    10:00 +29°C° 0.1 mm 1 mps 685 mmHg 39%
    11:00 +30°C° 0.1 mm 1 mps 685 mmHg 39%
    12:00 +30°C° 0.3 mm 1 mps 685 mmHg 38%
    13:00 +31°C° 0.3 mm 1 mps 685 mmHg 38%
    14:00 +31°C° 0.3 mm 1 mps 685 mmHg 37%
    15:00 +30°C° 0.2 mm 2 mps 685 mmHg 40%
    16:00 +29°C° 0.2 mm 2 mps 684 mmHg 43%
    17:00 +28°C° 0.2 mm 3 mps 684 mmHg 46%
    18:00 +26°C° 0.6 mm 3 mps 685 mmHg 54%
    19:00 +24°C° 0.6 mm 3 mps 685 mmHg 61%
    20:00 +21°C° 0.6 mm 4 mps 685 mmHg 68%
    21:00 +21°C° 0.1 mm 4 mps 686 mmHg 68%
    22:00 +21°C° 0.1 mm 4 mps 686 mmHg 68%
    23:00 +20°C° 0.1 mm 3 mps 686 mmHg 68%
    Mostrar más